Year,Month,Day,Hour,Minute,Value (Times are PST for temperature in C)
2019,10,31,00,00,1.60
2019,10,31,00,01,1.60
2019,10,31,00,02,1.50
2019,10,31,00,03,1.50
2019,10,31,00,04,1.50
2019,10,31,00,05,1.50
2019,10,31,00,06,1.50
2019,10,31,00,07,1.50
2019,10,31,00,08,1.50
2019,10,31,00,09,1.40
2019,10,31,00,10,1.40
2019,10,31,00,11,1.40
2019,10,31,00,12,1.40
2019,10,31,00,13,1.40
2019,10,31,00,14,1.30
2019,10,31,00,15,1.30
2019,10,31,00,16,1.30
2019,10,31,00,17,1.30
2019,10,31,00,18,1.20
2019,10,31,00,19,1.20
2019,10,31,00,20,1.20
2019,10,31,00,21,1.20
2019,10,31,00,22,1.20
2019,10,31,00,23,1.20
2019,10,31,00,24,1.20
2019,10,31,00,25,1.20
2019,10,31,00,26,1.20
2019,10,31,00,27,1.20
2019,10,31,00,28,1.20
2019,10,31,00,29,1.20
2019,10,31,00,30,1.20
2019,10,31,00,31,1.20
2019,10,31,00,32,1.20
2019,10,31,00,33,1.20
2019,10,31,00,34,1.20
2019,10,31,00,35,1.20
2019,10,31,00,36,1.20
2019,10,31,00,37,1.20
2019,10,31,00,38,1.30
2019,10,31,00,39,1.30
2019,10,31,00,40,1.30
2019,10,31,00,41,1.30
2019,10,31,00,42,1.30
2019,10,31,00,43,1.30
2019,10,31,00,44,1.30
2019,10,31,00,45,1.30
2019,10,31,00,46,1.30
2019,10,31,00,47,1.30
2019,10,31,00,48,1.30
2019,10,31,00,49,1.30
2019,10,31,00,50,1.30
2019,10,31,00,51,1.30
2019,10,31,00,52,1.30
2019,10,31,00,53,1.30
2019,10,31,00,54,1.30
2019,10,31,00,55,1.40
2019,10,31,00,56,1.40
2019,10,31,00,57,1.40
2019,10,31,00,58,1.40
2019,10,31,00,59,1.40
2019,10,31,01,00,1.40
2019,10,31,01,01,1.40
2019,10,31,01,02,1.40
2019,10,31,01,03,1.50
2019,10,31,01,04,1.50
2019,10,31,01,05,1.50
2019,10,31,01,06,1.50
2019,10,31,01,07,1.50
2019,10,31,01,08,1.50
2019,10,31,01,09,1.60
2019,10,31,01,10,1.60
2019,10,31,01,11,1.60
2019,10,31,01,12,1.60
2019,10,31,01,13,1.60
2019,10,31,01,14,1.60
2019,10,31,01,15,1.50
2019,10,31,01,16,1.50
2019,10,31,01,17,1.60
2019,10,31,01,18,1.60
2019,10,31,01,19,1.60
2019,10,31,01,20,1.60
2019,10,31,01,21,1.60
2019,10,31,01,22,1.60
2019,10,31,01,23,1.70
2019,10,31,01,24,1.70
2019,10,31,01,25,1.70
2019,10,31,01,26,1.70
2019,10,31,01,27,1.70
2019,10,31,01,28,1.70
2019,10,31,01,29,1.70
2019,10,31,01,30,1.70
2019,10,31,01,31,1.70
2019,10,31,01,32,1.70
2019,10,31,01,33,1.70
2019,10,31,01,34,1.80
2019,10,31,01,35,1.80
2019,10,31,01,36,1.80
2019,10,31,01,37,1.80
2019,10,31,01,38,1.80
2019,10,31,01,39,1.80
2019,10,31,01,40,1.80
2019,10,31,01,41,1.90
2019,10,31,01,42,1.90
2019,10,31,01,43,1.90
2019,10,31,01,44,1.90
2019,10,31,01,45,1.90
2019,10,31,01,46,1.90
2019,10,31,01,47,2.00
2019,10,31,01,48,2.00
2019,10,31,01,49,2.00
2019,10,31,01,50,2.00
2019,10,31,01,51,2.00
2019,10,31,01,52,2.00
2019,10,31,01,53,2.00
2019,10,31,01,54,2.10
2019,10,31,01,55,2.10
2019,10,31,01,56,2.10
2019,10,31,01,57,2.20
2019,10,31,01,58,2.20
2019,10,31,01,59,2.20
2019,10,31,02,00,2.20
2019,10,31,02,01,2.20
2019,10,31,02,02,2.20
2019,10,31,02,03,2.30
2019,10,31,02,04,2.30
2019,10,31,02,05,2.30
2019,10,31,02,06,2.30
2019,10,31,02,07,2.40
2019,10,31,02,08,2.40
2019,10,31,02,09,2.40
2019,10,31,02,10,2.40
2019,10,31,02,11,2.50
2019,10,31,02,12,2.50
2019,10,31,02,13,2.60
2019,10,31,02,14,2.60
2019,10,31,02,15,2.60
2019,10,31,02,16,2.60
2019,10,31,02,17,2.60
2019,10,31,02,18,2.60
2019,10,31,02,19,2.70
2019,10,31,02,20,2.70
2019,10,31,02,21,2.70
2019,10,31,02,22,2.70
2019,10,31,02,23,2.70
2019,10,31,02,24,2.70
2019,10,31,02,25,2.70
2019,10,31,02,26,2.70
2019,10,31,02,27,2.70
2019,10,31,02,28,2.70
2019,10,31,02,29,2.70
2019,10,31,02,30,2.70
2019,10,31,02,31,2.70
2019,10,31,02,32,2.70
2019,10,31,02,33,2.70
2019,10,31,02,34,2.70
2019,10,31,02,35,2.70
2019,10,31,02,36,2.70
2019,10,31,02,37,2.70
2019,10,31,02,38,2.70
2019,10,31,02,39,2.70
2019,10,31,02,40,2.70
2019,10,31,02,41,2.70
2019,10,31,02,42,2.70
2019,10,31,02,43,2.70
2019,10,31,02,44,2.70
2019,10,31,02,45,2.70
2019,10,31,02,46,2.70
2019,10,31,02,47,2.70
2019,10,31,02,48,2.80
2019,10,31,02,49,2.80
2019,10,31,02,50,2.80
2019,10,31,02,51,2.80
2019,10,31,02,52,2.80
2019,10,31,02,53,2.80
2019,10,31,02,54,2.90
2019,10,31,02,55,2.90
2019,10,31,02,56,2.90
2019,10,31,02,57,2.90
2019,10,31,02,58,3.00
2019,10,31,02,59,3.00
2019,10,31,03,00,3.00
2019,10,31,03,01,3.10
2019,10,31,03,02,3.10
2019,10,31,03,03,3.10
2019,10,31,03,04,3.20
2019,10,31,03,05,3.20
2019,10,31,03,06,3.20
2019,10,31,03,07,3.20
2019,10,31,03,08,3.20
2019,10,31,03,09,3.20
2019,10,31,03,10,3.20
2019,10,31,03,11,3.10
2019,10,31,03,12,3.10
2019,10,31,03,13,3.10
2019,10,31,03,14,3.10
2019,10,31,03,15,3.00
2019,10,31,03,16,3.00
2019,10,31,03,17,2.90
2019,10,31,03,18,2.90
2019,10,31,03,19,2.90
2019,10,31,03,20,2.90
2019,10,31,03,21,2.90
2019,10,31,03,22,2.90
2019,10,31,03,23,2.80
2019,10,31,03,24,2.80
2019,10,31,03,25,2.80
2019,10,31,03,26,2.80
2019,10,31,03,27,2.80
2019,10,31,03,28,2.80
2019,10,31,03,29,2.80
2019,10,31,03,30,2.80
2019,10,31,03,31,2.80
2019,10,31,03,32,2.70
2019,10,31,03,33,2.70
2019,10,31,03,34,2.70
2019,10,31,03,35,2.70
2019,10,31,03,36,2.70
2019,10,31,03,37,2.70
2019,10,31,03,38,2.70
2019,10,31,03,39,2.60
2019,10,31,03,40,2.60
2019,10,31,03,41,2.60
2019,10,31,03,42,2.60
2019,10,31,03,43,2.60
2019,10,31,03,44,2.60
2019,10,31,03,45,2.50
2019,10,31,03,46,2.50
2019,10,31,03,47,2.50
2019,10,31,03,48,2.50
2019,10,31,03,49,2.40
2019,10,31,03,50,2.40
2019,10,31,03,51,2.40
2019,10,31,03,52,2.40
2019,10,31,03,53,2.40
2019,10,31,03,54,2.40
2019,10,31,03,55,2.40
2019,10,31,03,56,2.40
2019,10,31,03,57,2.40
2019,10,31,03,58,2.40
2019,10,31,03,59,2.40
2019,10,31,04,00,2.40
2019,10,31,04,01,2.40
2019,10,31,04,02,2.40
2019,10,31,04,03,2.40
2019,10,31,04,04,2.40
2019,10,31,04,05,2.40
2019,10,31,04,06,2.50
2019,10,31,04,07,2.50
2019,10,31,04,08,2.50
2019,10,31,04,09,2.60
2019,10,31,04,10,2.60
2019,10,31,04,11,2.60
2019,10,31,04,12,2.60
2019,10,31,04,13,2.60
2019,10,31,04,14,2.70
2019,10,31,04,15,2.70
2019,10,31,04,16,2.70
2019,10,31,04,17,2.70
2019,10,31,04,18,2.70
2019,10,31,04,19,2.70
2019,10,31,04,20,2.70
2019,10,31,04,21,2.70
2019,10,31,04,22,2.70
2019,10,31,04,23,2.70
2019,10,31,04,24,2.70
2019,10,31,04,25,2.70
2019,10,31,04,26,2.70
2019,10,31,04,27,2.70
2019,10,31,04,28,2.70
2019,10,31,04,29,2.70
2019,10,31,04,30,2.70
2019,10,31,04,31,2.70
2019,10,31,04,32,2.70
2019,10,31,04,33,2.70
2019,10,31,04,34,2.70
2019,10,31,04,35,2.70
2019,10,31,04,36,2.70
2019,10,31,04,37,2.80
2019,10,31,04,38,2.80
2019,10,31,04,39,2.80
2019,10,31,04,40,2.80
2019,10,31,04,41,2.80
2019,10,31,04,42,2.80
2019,10,31,04,43,2.80
2019,10,31,04,44,2.80
2019,10,31,04,45,2.80
2019,10,31,04,46,2.80
2019,10,31,04,47,2.80
2019,10,31,04,48,2.80
2019,10,31,04,49,2.80
2019,10,31,04,50,2.80
2019,10,31,04,51,2.80
2019,10,31,04,52,2.80
2019,10,31,04,53,2.90
2019,10,31,04,54,2.90
2019,10,31,04,55,2.90
2019,10,31,04,56,3.00
2019,10,31,04,57,3.00
2019,10,31,04,58,3.00
2019,10,31,04,59,3.00
2019,10,31,05,00,3.00
2019,10,31,05,01,3.00
2019,10,31,05,02,3.00
2019,10,31,05,03,3.10
2019,10,31,05,04,3.10
2019,10,31,05,05,3.10
2019,10,31,05,06,3.10
2019,10,31,05,07,3.10
2019,10,31,05,08,3.10
2019,10,31,05,09,3.10
2019,10,31,05,10,3.10
2019,10,31,05,11,3.10
2019,10,31,05,12,3.10
2019,10,31,05,13,3.10
2019,10,31,05,14,3.20
2019,10,31,05,15,3.20
2019,10,31,05,16,3.20
2019,10,31,05,17,3.20
2019,10,31,05,18,3.20
2019,10,31,05,19,3.20
2019,10,31,05,20,3.20
2019,10,31,05,21,3.20
2019,10,31,05,22,3.20
2019,10,31,05,23,3.20
2019,10,31,05,24,3.20
2019,10,31,05,25,3.20
2019,10,31,05,26,3.20
2019,10,31,05,27,3.20
2019,10,31,05,28,3.20
2019,10,31,05,29,3.20
2019,10,31,05,30,3.20
2019,10,31,05,31,3.20
2019,10,31,05,32,3.20
2019,10,31,05,33,3.20
2019,10,31,05,34,3.20
2019,10,31,05,35,3.20
2019,10,31,05,36,3.20
2019,10,31,05,37,3.20
2019,10,31,05,38,3.20
2019,10,31,05,39,3.10
2019,10,31,05,40,3.10
2019,10,31,05,41,3.10
2019,10,31,05,42,3.10
2019,10,31,05,43,3.10
2019,10,31,05,44,3.10
2019,10,31,05,45,3.10
2019,10,31,05,46,3.10
2019,10,31,05,47,3.10
2019,10,31,05,48,3.10
2019,10,31,05,49,3.20
2019,10,31,05,50,3.20
2019,10,31,05,51,3.20
2019,10,31,05,52,3.10
2019,10,31,05,53,3.20
2019,10,31,05,54,3.20
2019,10,31,05,55,3.20
2019,10,31,05,56,3.20
2019,10,31,05,57,3.20
2019,10,31,05,58,3.20
2019,10,31,05,59,3.30
2019,10,31,06,00,3.30
2019,10,31,06,01,3.30
2019,10,31,06,02,3.30
2019,10,31,06,03,3.40
2019,10,31,06,04,3.40
2019,10,31,06,05,3.40
2019,10,31,06,06,3.50
2019,10,31,06,07,3.50
2019,10,31,06,08,3.60
2019,10,31,06,09,3.60
2019,10,31,06,10,3.60
2019,10,31,06,11,3.70
2019,10,31,06,12,3.70
2019,10,31,06,13,3.70
2019,10,31,06,14,3.70
2019,10,31,06,15,3.80
2019,10,31,06,16,3.80
2019,10,31,06,17,3.80
2019,10,31,06,18,3.70
2019,10,31,06,19,3.70
2019,10,31,06,20,3.70
2019,10,31,06,21,3.70
2019,10,31,06,22,3.70
2019,10,31,06,23,3.70
2019,10,31,06,24,3.60
2019,10,31,06,25,3.60
2019,10,31,06,26,3.60
2019,10,31,06,27,3.50
2019,10,31,06,28,3.50
2019,10,31,06,29,3.50
2019,10,31,06,30,3.50
2019,10,31,06,31,3.50
2019,10,31,06,32,3.40
2019,10,31,06,33,3.40
2019,10,31,06,34,3.40
2019,10,31,06,35,3.40
2019,10,31,06,36,3.40
2019,10,31,06,37,3.40
2019,10,31,06,38,3.40
2019,10,31,06,39,3.40
2019,10,31,06,40,3.40
2019,10,31,06,41,3.40
2019,10,31,06,42,3.40
2019,10,31,06,43,3.40
2019,10,31,06,44,3.40
2019,10,31,06,45,3.40
2019,10,31,06,46,3.40
2019,10,31,06,47,3.40
2019,10,31,06,48,3.40
2019,10,31,06,49,3.40
2019,10,31,06,50,3.40
2019,10,31,06,51,3.30
2019,10,31,06,52,3.30
2019,10,31,06,53,3.30
2019,10,31,06,54,3.30
2019,10,31,06,55,3.30
2019,10,31,06,56,3.30
2019,10,31,06,57,3.20
2019,10,31,06,58,3.20
2019,10,31,06,59,3.20
2019,10,31,07,00,3.20
2019,10,31,07,01,3.20
2019,10,31,07,02,3.20
2019,10,31,07,03,3.20
2019,10,31,07,04,3.10
2019,10,31,07,05,3.10
2019,10,31,07,06,3.10
2019,10,31,07,07,3.10
2019,10,31,07,08,3.10
2019,10,31,07,09,3.00
2019,10,31,07,10,3.00
2019,10,31,07,11,3.00
2019,10,31,07,12,3.00
2019,10,31,07,13,3.00
2019,10,31,07,14,2.90
2019,10,31,07,15,2.90
2019,10,31,07,16,2.90
2019,10,31,07,17,2.90
2019,10,31,07,18,2.80
2019,10,31,07,19,2.80
2019,10,31,07,20,2.80
2019,10,31,07,21,2.80
2019,10,31,07,22,2.80
2019,10,31,07,23,2.80
2019,10,31,07,24,2.80
2019,10,31,07,25,2.80
2019,10,31,07,26,2.80
2019,10,31,07,27,2.80
2019,10,31,07,28,2.80
2019,10,31,07,29,2.80
2019,10,31,07,30,2.70
2019,10,31,07,31,2.70
2019,10,31,07,32,2.70
2019,10,31,07,33,2.70
2019,10,31,07,34,2.70
2019,10,31,07,35,2.60
2019,10,31,07,36,2.60
2019,10,31,07,37,2.60
2019,10,31,07,38,2.60
2019,10,31,07,39,2.60
2019,10,31,07,40,2.50
2019,10,31,07,41,2.50
2019,10,31,07,42,2.50
2019,10,31,07,43,2.40
2019,10,31,07,44,2.40
2019,10,31,07,45,2.40
2019,10,31,07,46,2.40
2019,10,31,07,47,2.40
2019,10,31,07,48,2.30
2019,10,31,07,49,2.30
2019,10,31,07,50,2.30
2019,10,31,07,51,2.30
2019,10,31,07,52,2.30
2019,10,31,07,53,2.30
2019,10,31,07,54,2.30
2019,10,31,07,55,2.30
2019,10,31,07,56,2.30
2019,10,31,07,57,2.30
2019,10,31,07,58,2.20
2019,10,31,07,59,2.20
2019,10,31,08,00,2.20
2019,10,31,08,01,2.20
2019,10,31,08,02,2.20
2019,10,31,08,03,2.20
2019,10,31,08,04,2.20
2019,10,31,08,05,2.20
2019,10,31,08,06,2.20
2019,10,31,08,07,2.20
2019,10,31,08,08,2.20
2019,10,31,08,09,2.20
2019,10,31,08,10,2.20
2019,10,31,08,11,2.20
2019,10,31,08,12,2.20
2019,10,31,08,13,2.20
2019,10,31,08,14,2.20
2019,10,31,08,15,2.20
2019,10,31,08,16,2.20
2019,10,31,08,17,2.20
2019,10,31,08,18,2.20
2019,10,31,08,19,2.20
2019,10,31,08,20,2.20
2019,10,31,08,21,2.20
2019,10,31,08,22,2.10
2019,10,31,08,23,2.10
2019,10,31,08,24,2.10
2019,10,31,08,25,2.10
2019,10,31,08,26,2.10
2019,10,31,08,27,2.10
2019,10,31,08,28,2.10
2019,10,31,08,29,2.10
2019,10,31,08,30,2.10
2019,10,31,08,31,2.10
2019,10,31,08,32,2.10
2019,10,31,08,33,2.10
2019,10,31,08,34,2.10
2019,10,31,08,35,2.10
2019,10,31,08,36,2.10
2019,10,31,08,37,2.20
2019,10,31,08,38,2.20
2019,10,31,08,39,2.20
2019,10,31,08,40,2.20
2019,10,31,08,41,2.20
2019,10,31,08,42,2.20
2019,10,31,08,43,2.20
2019,10,31,08,44,2.20
2019,10,31,08,45,2.20
2019,10,31,08,46,2.30
2019,10,31,08,47,2.30
2019,10,31,08,48,2.30
2019,10,31,08,49,2.30
2019,10,31,08,50,2.30
2019,10,31,08,51,2.30
2019,10,31,08,52,2.30
2019,10,31,08,53,2.40
2019,10,31,08,54,2.40
2019,10,31,08,55,2.40
2019,10,31,08,56,2.50
2019,10,31,08,57,2.50
2019,10,31,08,58,2.50
2019,10,31,08,59,2.60
2019,10,31,09,00,2.60
2019,10,31,09,01,2.60
2019,10,31,09,02,2.60
2019,10,31,09,03,2.60
2019,10,31,09,04,2.70
2019,10,31,09,05,2.70
2019,10,31,09,06,2.70
2019,10,31,09,07,2.70
2019,10,31,09,08,2.80
2019,10,31,09,09,2.80
2019,10,31,09,10,2.80
2019,10,31,09,11,2.90
2019,10,31,09,12,2.90
2019,10,31,09,13,2.90
2019,10,31,09,14,3.00
2019,10,31,09,15,3.00
2019,10,31,09,16,3.00
2019,10,31,09,17,3.10
2019,10,31,09,18,3.10
2019,10,31,09,19,3.10
2019,10,31,09,20,3.20
2019,10,31,09,21,3.20
2019,10,31,09,22,3.30
2019,10,31,09,23,3.30
2019,10,31,09,24,3.30
2019,10,31,09,25,3.40
2019,10,31,09,26,3.40
2019,10,31,09,27,3.40
2019,10,31,09,28,3.50
2019,10,31,09,29,3.50
2019,10,31,09,30,3.60
2019,10,31,09,31,3.70
2019,10,31,09,32,3.70
2019,10,31,09,33,3.80
2019,10,31,09,34,3.80
2019,10,31,09,35,3.90
2019,10,31,09,36,4.00
2019,10,31,09,37,4.00
2019,10,31,09,38,4.10
2019,10,31,09,39,4.20
2019,10,31,09,40,4.30
2019,10,31,09,41,4.40
2019,10,31,09,42,4.60
2019,10,31,09,43,4.70
2019,10,31,09,44,4.80
2019,10,31,09,45,4.90
2019,10,31,09,46,5.00
2019,10,31,09,47,5.20
2019,10,31,09,48,5.30
2019,10,31,09,49,5.30
2019,10,31,09,50,5.40
2019,10,31,09,51,5.50
2019,10,31,09,52,5.50
2019,10,31,09,53,5.60
2019,10,31,09,54,5.70
2019,10,31,09,55,5.80
2019,10,31,09,56,5.90
2019,10,31,09,57,6.00
2019,10,31,09,58,6.10
2019,10,31,09,59,6.20
2019,10,31,10,00,6.30
2019,10,31,10,01,6.40
2019,10,31,10,02,6.60
2019,10,31,10,03,6.70
2019,10,31,10,04,6.80
2019,10,31,10,05,6.90
2019,10,31,10,06,6.90
2019,10,31,10,07,7.00
2019,10,31,10,08,7.10
2019,10,31,10,09,7.10
2019,10,31,10,10,7.20
2019,10,31,10,11,7.20
2019,10,31,10,12,7.30
2019,10,31,10,13,7.30
2019,10,31,10,14,7.30
2019,10,31,10,15,7.40
2019,10,31,10,16,7.40
2019,10,31,10,17,7.40
2019,10,31,10,18,7.40
2019,10,31,10,19,7.50
2019,10,31,10,20,7.50
2019,10,31,10,21,7.50
2019,10,31,10,22,7.50
2019,10,31,10,23,7.60
2019,10,31,10,24,7.70
2019,10,31,10,25,7.70
2019,10,31,10,26,7.80
2019,10,31,10,27,7.80
2019,10,31,10,28,7.80
2019,10,31,10,29,7.80
2019,10,31,10,30,7.90
2019,10,31,10,31,7.90
2019,10,31,10,32,7.90
2019,10,31,10,33,8.00
2019,10,31,10,34,8.00
2019,10,31,10,35,8.10
2019,10,31,10,36,8.20
2019,10,31,10,37,8.30
2019,10,31,10,38,8.30
2019,10,31,10,39,8.20
2019,10,31,10,40,8.20
2019,10,31,10,41,8.20
2019,10,31,10,42,8.20
2019,10,31,10,43,8.20
2019,10,31,10,44,8.30
2019,10,31,10,45,8.30
2019,10,31,10,46,8.40
2019,10,31,10,47,8.50
2019,10,31,10,48,8.60
2019,10,31,10,49,8.70
2019,10,31,10,50,8.70
2019,10,31,10,51,8.70
2019,10,31,10,52,8.70
2019,10,31,10,53,8.70
2019,10,31,10,54,8.60
2019,10,31,10,55,8.60
2019,10,31,10,56,8.60
2019,10,31,10,57,8.50
2019,10,31,10,58,8.50
2019,10,31,10,59,8.60
2019,10,31,11,00,8.60
2019,10,31,11,01,8.70
2019,10,31,11,02,8.70
2019,10,31,11,03,8.70
2019,10,31,11,04,8.80
2019,10,31,11,05,8.80
2019,10,31,11,06,8.80
2019,10,31,11,07,8.70
2019,10,31,11,08,8.70
2019,10,31,11,09,8.80
2019,10,31,11,10,8.90
2019,10,31,11,11,9.00
2019,10,31,11,12,9.00
2019,10,31,11,13,9.00
2019,10,31,11,14,9.00
2019,10,31,11,15,9.00
2019,10,31,11,16,9.00
2019,10,31,11,17,9.10
2019,10,31,11,18,9.10
2019,10,31,11,19,9.10
2019,10,31,11,20,9.10
2019,10,31,11,21,9.00
2019,10,31,11,22,9.00
2019,10,31,11,23,8.90
2019,10,31,11,24,8.90
2019,10,31,11,25,9.00
2019,10,31,11,26,9.00
2019,10,31,11,27,9.00
2019,10,31,11,28,9.10
2019,10,31,11,29,9.20
2019,10,31,11,30,9.30
2019,10,31,11,31,9.40
2019,10,31,11,32,9.40
2019,10,31,11,33,9.50
2019,10,31,11,34,9.60
2019,10,31,11,35,9.60
2019,10,31,11,36,9.60
2019,10,31,11,37,9.70
2019,10,31,11,38,9.70
2019,10,31,11,39,9.70
2019,10,31,11,40,9.80
2019,10,31,11,41,9.80
2019,10,31,11,42,9.80
2019,10,31,11,43,10.00
2019,10,31,11,44,10.10
2019,10,31,11,45,10.10
2019,10,31,11,46,10.10
2019,10,31,11,47,10.10
2019,10,31,11,48,10.10
2019,10,31,11,49,10.10
2019,10,31,11,50,10.10
2019,10,31,11,51,10.10
2019,10,31,11,52,10.10
2019,10,31,11,53,10.00
2019,10,31,11,54,9.90
2019,10,31,11,55,9.90
2019,10,31,11,56,10.00
2019,10,31,11,57,10.00
2019,10,31,11,58,10.10
2019,10,31,11,59,10.20
2019,10,31,12,00,10.20
2019,10,31,12,01,10.20
2019,10,31,12,02,10.30
2019,10,31,12,03,10.30
2019,10,31,12,04,10.40
2019,10,31,12,05,10.40
2019,10,31,12,06,10.40
2019,10,31,12,07,10.40
2019,10,31,12,08,10.40
2019,10,31,12,09,10.30
2019,10,31,12,10,10.40
2019,10,31,12,11,10.40
2019,10,31,12,12,10.50
2019,10,31,12,13,10.60
2019,10,31,12,14,10.60
2019,10,31,12,15,10.40
2019,10,31,12,16,10.30
2019,10,31,12,17,10.10
2019,10,31,12,18,10.10
2019,10,31,12,19,10.00
2019,10,31,12,20,10.00
2019,10,31,12,21,10.00
2019,10,31,12,22,10.00
2019,10,31,12,23,10.00
2019,10,31,12,24,10.10
2019,10,31,12,25,10.10
2019,10,31,12,26,10.20
2019,10,31,12,27,10.10
2019,10,31,12,28,10.10
2019,10,31,12,29,10.10
2019,10,31,12,30,10.10
2019,10,31,12,31,10.10
2019,10,31,12,32,10.20
2019,10,31,12,33,10.10
2019,10,31,12,34,10.20
2019,10,31,12,35,10.20
2019,10,31,12,36,10.20
2019,10,31,12,37,10.20
2019,10,31,12,38,10.20
2019,10,31,12,39,10.20
2019,10,31,12,40,10.20
2019,10,31,12,41,10.20
2019,10,31,12,42,10.20
2019,10,31,12,43,10.20
2019,10,31,12,44,10.20
2019,10,31,12,45,10.30
2019,10,31,12,46,10.30
2019,10,31,12,47,10.30
2019,10,31,12,48,10.30
2019,10,31,12,49,10.40
2019,10,31,12,50,10.40
2019,10,31,12,51,10.40
2019,10,31,12,52,10.40
2019,10,31,12,53,10.40
2019,10,31,12,54,10.50
2019,10,31,12,55,10.50
2019,10,31,12,56,10.60
2019,10,31,12,57,10.50
2019,10,31,12,58,10.50
2019,10,31,12,59,10.50
2019,10,31,13,00,10.60
2019,10,31,13,01,10.70
2019,10,31,13,02,10.70
2019,10,31,13,03,10.70
2019,10,31,13,04,10.70
2019,10,31,13,05,10.60
2019,10,31,13,06,10.60
2019,10,31,13,07,10.60
2019,10,31,13,08,10.70
2019,10,31,13,09,10.70
2019,10,31,13,10,10.80
2019,10,31,13,11,10.80
2019,10,31,13,12,10.80
2019,10,31,13,13,10.80
2019,10,31,13,14,10.90
2019,10,31,13,15,11.00
2019,10,31,13,16,11.10
2019,10,31,13,17,11.10
2019,10,31,13,18,11.10
2019,10,31,13,19,10.90
2019,10,31,13,20,10.90
2019,10,31,13,21,10.80
2019,10,31,13,22,10.80
2019,10,31,13,23,10.80
2019,10,31,13,24,10.80
2019,10,31,13,25,10.80
2019,10,31,13,26,10.80
2019,10,31,13,27,10.80
2019,10,31,13,28,10.80
2019,10,31,13,29,10.70
2019,10,31,13,30,10.60
2019,10,31,13,31,10.60
2019,10,31,13,32,10.70
2019,10,31,13,33,10.70
2019,10,31,13,34,10.70
2019,10,31,13,35,10.80
2019,10,31,13,36,10.80
2019,10,31,13,37,10.80
2019,10,31,13,38,10.70
2019,10,31,13,39,10.60
2019,10,31,13,40,10.50
2019,10,31,13,41,10.40
2019,10,31,13,42,10.50
2019,10,31,13,43,10.50
2019,10,31,13,44,10.50
2019,10,31,13,45,10.50
2019,10,31,13,46,10.50
2019,10,31,13,47,10.40
2019,10,31,13,48,10.20
2019,10,31,13,49,10.10
2019,10,31,13,50,10.10
2019,10,31,13,51,10.10
2019,10,31,13,52,10.10
2019,10,31,13,53,10.10
2019,10,31,13,54,10.10
2019,10,31,13,55,10.10
2019,10,31,13,56,10.00
2019,10,31,13,57,10.00
2019,10,31,13,58,10.00
2019,10,31,13,59,10.00
2019,10,31,14,00,10.00
2019,10,31,14,01,10.00
2019,10,31,14,02,10.00
2019,10,31,14,03,10.00
2019,10,31,14,04,10.20
2019,10,31,14,05,10.20
2019,10,31,14,06,10.20
2019,10,31,14,07,10.30
2019,10,31,14,08,10.30
2019,10,31,14,09,10.30
2019,10,31,14,10,10.40
2019,10,31,14,11,10.40
2019,10,31,14,12,10.30
2019,10,31,14,13,10.40
2019,10,31,14,14,10.40
2019,10,31,14,15,10.40
2019,10,31,14,16,10.30
2019,10,31,14,17,10.30
2019,10,31,14,18,10.30
2019,10,31,14,19,10.20
2019,10,31,14,20,10.20
2019,10,31,14,21,10.20
2019,10,31,14,22,10.20
2019,10,31,14,23,10.30
2019,10,31,14,24,10.30
2019,10,31,14,25,10.20
2019,10,31,14,26,10.20
2019,10,31,14,27,10.30
2019,10,31,14,28,10.40
2019,10,31,14,29,10.50
2019,10,31,14,30,10.70
2019,10,31,14,31,10.90
2019,10,31,14,32,11.00
2019,10,31,14,33,11.10
2019,10,31,14,34,11.00
2019,10,31,14,35,10.90
2019,10,31,14,36,10.80
2019,10,31,14,37,10.70
2019,10,31,14,38,10.60
2019,10,31,14,39,10.60
2019,10,31,14,40,10.60
2019,10,31,14,41,10.60
2019,10,31,14,42,10.60
2019,10,31,14,43,10.70
2019,10,31,14,44,10.70
2019,10,31,14,45,10.70
2019,10,31,14,46,10.60
2019,10,31,14,47,10.60
2019,10,31,14,48,10.60
2019,10,31,14,49,10.60
2019,10,31,14,50,10.60
2019,10,31,14,51,10.60
2019,10,31,14,52,10.70
2019,10,31,14,53,10.70
2019,10,31,14,54,10.70
2019,10,31,14,55,10.60
2019,10,31,14,56,10.60
2019,10,31,14,57,10.60
2019,10,31,14,58,10.60
2019,10,31,14,59,10.60
2019,10,31,15,00,10.70
2019,10,31,15,01,10.70
2019,10,31,15,02,10.60
2019,10,31,15,03,10.60
2019,10,31,15,04,10.50
2019,10,31,15,05,10.40
2019,10,31,15,06,10.30
2019,10,31,15,07,10.30
2019,10,31,15,08,10.30
2019,10,31,15,09,10.30
2019,10,31,15,10,10.30
2019,10,31,15,11,10.40
2019,10,31,15,12,10.40
2019,10,31,15,13,10.40
2019,10,31,15,14,10.50
2019,10,31,15,15,10.50
2019,10,31,15,16,10.50
2019,10,31,15,17,10.50
2019,10,31,15,18,10.50
2019,10,31,15,19,10.50
2019,10,31,15,20,10.40
2019,10,31,15,21,10.30
2019,10,31,15,22,10.30
2019,10,31,15,23,10.30
2019,10,31,15,24,10.30
2019,10,31,15,25,10.40
2019,10,31,15,26,10.40
2019,10,31,15,27,10.40
2019,10,31,15,28,10.30
2019,10,31,15,29,10.30
2019,10,31,15,30,10.30
2019,10,31,15,31,10.20
2019,10,31,15,32,10.20
2019,10,31,15,33,10.20
2019,10,31,15,34,10.30
2019,10,31,15,35,10.30
2019,10,31,15,36,10.30
2019,10,31,15,37,10.40
2019,10,31,15,38,10.40
2019,10,31,15,39,10.50
2019,10,31,15,40,10.50
2019,10,31,15,41,10.50
2019,10,31,15,42,10.60
2019,10,31,15,43,10.60
2019,10,31,15,44,10.60
2019,10,31,15,45,10.60
2019,10,31,15,46,10.70
2019,10,31,15,47,10.70
2019,10,31,15,48,10.60
2019,10,31,15,49,10.40
2019,10,31,15,50,10.30
2019,10,31,15,51,10.30
2019,10,31,15,52,10.20
2019,10,31,15,53,10.20
2019,10,31,15,54,10.20
2019,10,31,15,55,10.20
2019,10,31,15,56,10.30
2019,10,31,15,57,10.20
2019,10,31,15,58,10.30
2019,10,31,15,59,10.30
2019,10,31,16,00,10.30
2019,10,31,16,01,10.30
2019,10,31,16,02,10.30
2019,10,31,16,03,10.30
2019,10,31,16,04,10.20
2019,10,31,16,05,10.10
2019,10,31,16,06,10.00
2019,10,31,16,07,9.90
2019,10,31,16,08,9.90
2019,10,31,16,09,9.80
2019,10,31,16,10,9.80
2019,10,31,16,11,9.80
2019,10,31,16,12,9.80
2019,10,31,16,13,9.80
2019,10,31,16,14,9.90
2019,10,31,16,15,9.90
2019,10,31,16,16,10.00
2019,10,31,16,17,10.00
2019,10,31,16,18,10.00
2019,10,31,16,19,9.90
2019,10,31,16,20,9.80
2019,10,31,16,21,9.70
2019,10,31,16,22,9.70
2019,10,31,16,23,9.60
2019,10,31,16,24,9.60
2019,10,31,16,25,9.60
2019,10,31,16,26,9.60
2019,10,31,16,27,9.60
2019,10,31,16,28,9.50
2019,10,31,16,29,9.50
2019,10,31,16,30,9.50
2019,10,31,16,31,9.60
2019,10,31,16,32,9.60
2019,10,31,16,33,9.60
2019,10,31,16,34,9.60
2019,10,31,16,35,9.60
2019,10,31,16,36,9.60
2019,10,31,16,37,9.50
2019,10,31,16,38,9.40
2019,10,31,16,39,9.40
2019,10,31,16,40,9.40
2019,10,31,16,41,9.40
2019,10,31,16,42,9.30
2019,10,31,16,43,9.30
2019,10,31,16,44,9.40
2019,10,31,16,45,9.40
2019,10,31,16,46,9.40
2019,10,31,16,47,9.40
2019,10,31,16,48,9.40
2019,10,31,16,49,9.40
2019,10,31,16,50,9.50
2019,10,31,16,51,9.60
2019,10,31,16,52,9.60
2019,10,31,16,53,9.70
2019,10,31,16,54,9.80
2019,10,31,16,55,9.80
2019,10,31,16,56,9.90
2019,10,31,16,57,9.80
2019,10,31,16,58,9.80
2019,10,31,16,59,9.80
2019,10,31,17,00,9.80
2019,10,31,17,01,9.70
2019,10,31,17,02,9.70
2019,10,31,17,03,9.70
2019,10,31,17,04,9.70
2019,10,31,17,05,9.60
2019,10,31,17,06,9.60
2019,10,31,17,07,9.50
2019,10,31,17,08,9.40
2019,10,31,17,09,9.40
2019,10,31,17,10,9.30
2019,10,31,17,11,9.20
2019,10,31,17,12,9.20
2019,10,31,17,13,9.10
2019,10,31,17,14,9.10
2019,10,31,17,15,9.10
2019,10,31,17,16,9.00
2019,10,31,17,17,9.00
2019,10,31,17,18,9.00
2019,10,31,17,19,9.00
2019,10,31,17,20,8.90
2019,10,31,17,21,8.90
2019,10,31,17,22,8.90
2019,10,31,17,23,8.90
2019,10,31,17,24,8.90
2019,10,31,17,25,8.90
2019,10,31,17,26,8.90
2019,10,31,17,27,8.80
2019,10,31,17,28,8.80
2019,10,31,17,29,8.80
2019,10,31,17,30,8.70
2019,10,31,17,31,8.70
2019,10,31,17,32,8.70
2019,10,31,17,33,8.60
2019,10,31,17,34,8.60
2019,10,31,17,35,8.50
2019,10,31,17,36,8.50
2019,10,31,17,37,8.40
2019,10,31,17,38,8.40
2019,10,31,17,39,8.30
2019,10,31,17,40,8.20
2019,10,31,17,41,8.20
2019,10,31,17,42,8.10
2019,10,31,17,43,8.10
2019,10,31,17,44,8.00
2019,10,31,17,45,7.90
2019,10,31,17,46,7.90
2019,10,31,17,47,7.80
2019,10,31,17,48,7.80
2019,10,31,17,49,7.70
2019,10,31,17,50,7.60
2019,10,31,17,51,7.60
2019,10,31,17,52,7.50
2019,10,31,17,53,7.50
2019,10,31,17,54,7.40